Hourly Data Report for May 25, 2012

All times are specified in Local Standard Time (LST). Add 1 hour to adjust for Daylight Saving Time where and when it is observed.

GANDER INTL A
NEWFOUNDLAND

48°56'13.000" N
54°34'05.000" W
151.20 m
8401703
71803
YQX

Download Data

Hourly Data (May 2012)
Hourly Data Report for May 25, 2012
Temp Definition
°C
Dew Point Temp Definition
°C
Rel Hum Definition
%
Wind Dir Definition
10's deg

Wind Spd Definition
km/h
Visibility Definition
km
Stn Press Definition
kPa
Hmdx Definition


Wind Chill Definition


Weather Definition


TIME
00:30 Legend Double Dagger 3.2 0.4 82 17 13 10.0 100.72     LegendNANA
01:30 Legend Double Dagger 5.2 2.7 84 22 17 10.0 100.67     LegendNANA
02:30 Legend Double Dagger 7.2 4.0 80 22 13 10.0 100.69     Cloudy
03:30 Legend Double Dagger 7.5 4.5 81 21 12 10.0 100.69     LegendNANA
04:30 Legend Double Dagger 8.5 4.9 78 22 19 10.0 100.68     LegendNANA
05:30 Legend Double Dagger 9.7 5.5 75 23 20 10.0 100.66     Mostly Cloudy
06:30 Legend Double Dagger 11.4 4.0 60 24 31 10.0 100.63     LegendNANA
07:30 Legend Double Dagger 12.3 4.3 58 25 30 10.0 100.61     LegendNANA
08:30 Legend Double Dagger 14.4 5.3 54 25 27 10.0 100.57     Mostly Cloudy
09:30 Legend Double Dagger 17.0 6.6 50 25 26 10.0 100.49     LegendNANA
10:30 Legend Double Dagger 19.3 7.2 45 24 30 10.0 100.37     LegendNANA
11:30 Legend Double Dagger 21.1 8.2 43 25 19 10.0 100.33     Mostly Cloudy
12:30 Legend Double Dagger 21.5 7.9 41 26 30 10.0 100.24     LegendNANA
13:30 Legend Double Dagger 21.7 8.0 41 25 33 10.0 100.22     LegendNANA
14:30 Legend Double Dagger 22.7 7.8 38 24 32 10.0 100.13     Mostly Cloudy
15:30 Legend Double Dagger 23.1 7.4 36 24 32 10.0 100.06     LegendNANA
16:30 Legend Double Dagger 22.0 6.8 37 25 32 10.0 100.02     LegendNANA
17:30 Legend Double Dagger 20.9 6.2 38 24 30 10.0 99.99     Mostly Cloudy
18:30 Legend Double Dagger 19.2 5.4 40 25 28 10.0 99.97     LegendNANA
19:30 Legend Double Dagger 16.5 4.3 44 25 28 10.0 100.01     LegendNANA
20:30 Legend Double Dagger 15.5 3.4 44 24 29 10.0 100.02     Mainly Clear
21:30 Legend Double Dagger 14.3 2.3 44 24 29 10.0 100.03     LegendNANA
22:30 Legend Double Dagger 13.7 1.4 43 25 34 10.0 100.00     LegendNANA
23:30 Legend Double Dagger 12.6 0.4 43 24 28 10.0 99.96     Mainly Clear

Notes on Data Quality.

Legend

  • E = Estimated
  • M = Missing
  • NA = Not Available
  • ‡ = Partner data that is not subject to review by the National Climate Archives
Date modified: